• Processing (Info)

  • MPEC 2019-W04 : 2019 VV5

    The following Minor Planet Electronic Circular may be linked-to from your own Web pages, but must not otherwise be redistributed electronically.

    A form allowing access to any MPEC is at the bottom of this page.


    Read MPEC 2019-W03 Read MPEC 2019-W05


    M.P.E.C. 2019-W04                             Issued 2019 November 17, 02:43 UT
    
         The Minor Planet Electronic Circulars contain information on unusual
             minor planets and routine data on comets.  They are published
        on behalf of Division F of the International Astronomical Union by the
              Minor Planet Center, Smithsonian Astrophysical Observatory,
                              Cambridge, MA 02138, U.S.A.
    
                 Prepared using the Tamkin Foundation Computer Network
    
                                  MPC@CFA.HARVARD.EDU
                URL https://www.minorplanetcenter.net/    ISSN 1523-6714
    
                                    2019 VV5                                 
    
    
    Observations:
         K19V05V* C2019 11 02.51170503 32 28.380+26 07 37.08         21.12wUEW004F51
         K19V05V  C2019 11 02.52330803 32 24.327+26 08 33.33         21.18wUEW004F51
         K19V05V  C2019 11 02.53497103 32 20.367+26 09 28.19         20.65wUEW004F51
         K19V05V  C2019 11 02.54673303 32 16.367+26 10 23.66         20.81wUEW004F51
         K19V05V  C2019 11 05.32106 03 23 52.94 +28 40 53.4          21.8 GVEW004G96
         K19V05V  C2019 11 05.32619 03 23 52.03 +28 41 04.7          22.1 GVEW004G96
         K19V05V  C2019 11 05.33132 03 23 51.06 +28 41 15.0          21.3 GVEW004G96
         K19V05V  C2019 11 05.33645 03 23 50.12 +28 41 25.7          21.9 GVEW004G96
         K19V05V  C2019 11 05.36558903 23 51.805+28 42 45.79         22.5 GVEW004F52
         K19V05V  C2019 11 05.37716403 23 49.698+28 43 12.42         21.8 GVEW004F52
    
    Observer details:
    F51 Pan-STARRS 1, Haleakala.  Observers J. Bulger, T. Lowe, A. Schultz, M. 
       Willman.  Measurers K. Chambers, S. Chastel, T. de Boer, L. Denneau, J. 
       Fairlamb, H. Flewelling, M. Huber, C.-C. Lin, E. Magnier, Y. Ramanjooloo, R. 
       Wainscoat, R. Weryk.  1.8-m Ritchey-Chretien + CCD.
    F52 Pan-STARRS 2, Haleakala.  Observers J. Bulger, K. Chambers, T. Dukes, T. 
       Lowe, E. Magnier, A. Schultz, M. Willman.  Measurers S. Chastel, M. Huber, 
       Y. Ramanjooloo, R. Wainscoat, R. Weryk.  1.8-m Ritchey-Chretien + CCD.
    G96 Mt. Lemmon Survey.  Observer E. J. Christensen.  Measurers E. J. 
       Christensen, G. A. Farneth, D. C. Fuls, A. R. Gibbs, A. D. Grauer, H. 
       Groeller, R. A. Kowalski, S. M. Larson, G. J. Leonard, T. A. Pruyne, D. 
       Rankin, R. L. Seaman, F. C. Shelly, K. W. Wierzchos.  1.5-m reflector + 10K 
       CCD.
    
    Orbital elements:
    2019 VV5                                                 Earth MOID = 0.0067 AU
    Epoch 2019 Apr. 27.0 TT = JDT 2458600.5                 Bell
    M 308.27430              (2000.0)            P               Q
    n   0.35407335     Peri.  302.82212     +0.93963607     +0.33569535
    a   1.9788242      Node    37.68182     -0.26636136     +0.83918020
    e   0.5716177      Incl.    6.22452     -0.21479220     +0.42788460
    P   2.78           H   26.7           G   0.15           U   8
    Residuals in seconds of arc
    191102 F51  0.1+  0.1-    191105 G96  0.1-  0.3+    191105 F52  0.3+  0.3-
    191102 F51  0.4-  0.3+    191105 G96  0.2+  0.6+    191105 F52  0.0   0.2-
    191102 F51  0.2+  0.2-    191105 G96  0.2-  0.1-
    191102 F51  0.1+  0.0     191105 G96  0.3-  0.3-
    
    Ephemeris:
    2019 VV5                 a,e,i = 1.98, 0.57, 6                   q = 0.8477
    Date    TT    R. A. (2000) Decl.     Delta      r    Elong.  Phase     V
    2019 10 18    14 48 51.9 -37 50 08   0.07812 0.9325    33.7   143.6    28.4
    ...
    2019 11 02    03 35 00.2 +25 20 33   0.04069 1.0309   160.6    18.6    20.8
    ...
    2019 11 10    03 17 05.4 +30 22 42   0.1042  1.0917   165.9    12.8    22.7
    ...
    2019 11 16    03 12 58.3 +31 06 08   0.1540  1.1397   167.2    11.0    23.6
    2019 11 17    03 12 31.9 +31 09 09   0.1625  1.1479   167.2    11.0    23.7
    2019 11 18    03 12 08.6 +31 11 24   0.1711  1.1561   167.1    11.0    23.9
    ...
    2019 11 24    03 10 44.4 +31 13 10   0.2245  1.2058   165.2    12.1    24.6
    ...
    2019 12 02    03 11 01.8 +30 58 45   0.3011  1.2732   160.1    15.3    25.5
    ...
    2019 12 17    03 17 17.2 +30 20 50   0.4640  1.4007   148.4    21.6    26.8
    
    A. U. Tomatic                (C) Copyright 2019 MPC           M.P.E.C. 2019-W04
    


    Read MPEC 2019-W03 Read MPEC 2019-W05


    MPEC number:

    Enter an MPEC number in one of the following forms:

    • 1997-B01 (the full form)
    • J97B01 (the packed version of the full form)
    • B01 (the abbreviated form)